Location: Kervinic
(48.4279°N, 4.7373°W)
Time: 12:34:59
(UTC+00:00)

CZ-4C R/B - Pass Details

Date: 09 April 2020
Orbit: 637 x 1365 km, 63.4° (Epoch: 28 May)

Event Time Altitude Azimuth Distance (km) Brightness Sun altitude
Rises 20:48:01 0° 316° (NW) 3,653 7.1 -16.9°
Reaches altitude 10° 20:50:37 10° 324° (NW) 2,812 6.0 -17.3°
Maximum altitude 20:56:57 40° 33° (NNE) 1,638 3.7 -18.1°
Enters shadow 21:01:49 20° 91° (E) 2,526 4.2 -18.8°
